• In Belarus
  • List of Countries
  • For 7 days
  • Water Temperature
  • Satellite Maps
  • Weather Map
  • Weather Widgets
  • user-avatar
    Login

    Hourly Weather Kosiv

    Today, 15 December, Friday

    Time Temperature Precipitation Wind Pressure Humidity
    00:00 +3°C° 0 mm 2 mps 723 mmHg 79%
    01:00 +3°C° 0 mm 2 mps 723 mmHg 81%
    02:00 +2°C° 0 mm 2 mps 722 mmHg 87%
    03:00 +3°C° 0.1 mm 2 mps 722 mmHg 87%
    04:00 +3°C° 0.1 mm 2 mps 722 mmHg 87%
    05:00 +3°C° 0.1 mm 2 mps 722 mmHg 87%
    06:00 +3°C° 0 mm 2 mps 722 mmHg 87%
    07:00 +3°C° 0 mm 2 mps 722 mmHg 87%
    08:00 +4°C° 0 mm 2 mps 722 mmHg 86%
    09:00 +5°C° 0.1 mm 2 mps 721 mmHg 84%
    10:00 +5°C° 0.1 mm 3 mps 721 mmHg 81%
    11:00 +5°C° 0.1 mm 3 mps 721 mmHg 78%
    12:00 +7°C° 0.6 mm 3 mps 721 mmHg 78%
    13:00 +7°C° 0.6 mm 3 mps 720 mmHg 78%
    14:00 +7°C° 0.6 mm 4 mps 720 mmHg 78%
    15:00 +7°C° 0.2 mm 4 mps 720 mmHg 78%
    16:00 +7°C° 0.2 mm 4 mps 720 mmHg 79%
    17:00 +6°C° 0.2 mm 4 mps 720 mmHg 80%
    18:00 +6°C° 0.1 mm 4 mps 720 mmHg 81%
    19:00 +7°C° 0.1 mm 3 mps 720 mmHg 81%
    20:00 +7°C° 0.1 mm 3 mps 721 mmHg 82%
    21:00 +7°C° 0.1 mm 3 mps 721 mmHg 84%
    22:00 +5°C° 0.1 mm 3 mps 721 mmHg 85%
    23:00 +6°C° 0.1 mm 2 mps 721 mmHg 87%

    Tomorrow, 16 December, Saturday

    Time Temperature Precipitation Wind Pressure Humidity
    00:00 +6°C° 0.6 mm 2 mps 720 mmHg 88%
    01:00 +7°C° 0.6 mm 1 mps 719 mmHg 90%
    02:00 +7°C° 0.6 mm 1 mps 719 mmHg 92%
    03:00 +7°C° 1.1 mm 1 mps 718 mmHg 92%
    04:00 +6°C° 1.1 mm 1 mps 717 mmHg 93%
    05:00 +5°C° 1.1 mm 2 mps 717 mmHg 94%
    06:00 +5°C° 0.5 mm 2 mps 716 mmHg 93%
    07:00 +5°C° 0.5 mm 2 mps 716 mmHg 92%
    08:00 +5°C° 0.5 mm 2 mps 715 mmHg 91%
    09:00 +6°C° 0.2 mm 2 mps 715 mmHg 89%
    10:00 +7°C° 0.2 mm 3 mps 715 mmHg 86%
    11:00 +7°C° 0.2 mm 3 mps 716 mmHg 84%
    12:00 +7°C° 0.2 mm 3 mps 716 mmHg 84%
    13:00 +7°C° 0.2 mm 3 mps 717 mmHg 84%
    14:00 +5°C° 0.2 mm 3 mps 717 mmHg 84%
    15:00 +5°C° 0.1 mm 3 mps 718 mmHg 86%
    16:00 +4°C° 0.1 mm 3 mps 719 mmHg 88%
    17:00 +3°C° 0.1 mm 3 mps 720 mmHg 90%
    18:00 +2°C° 0.1 mm 3 mps 721 mmHg 90%
    19:00 +2°C° 0.1 mm 3 mps 721 mmHg 91%
    20:00 +1°C° 0.1 mm 3 mps 722 mmHg 91%
    21:00 +1°C° 0.1 mm 3 mps 723 mmHg 91%
    22:00 +2°C° 0.1 mm 2 mps 724 mmHg 91%
    23:00 +2°C° 0.1 mm 2 mps 725 mmHg 91%

    Day after tomorrow, 17 December, Sunday

    Time Temperature Precipitation Wind Pressure Humidity
    00:00 +1°C° 0.1 mm 2 mps 725 mmHg 91%
    01:00 +1°C° 0.1 mm 2 mps 726 mmHg 92%
    02:00 +1°C° 0.1 mm 2 mps 726 mmHg 92%
    03:00 +1°C° 0.1 mm 2 mps 726 mmHg 91%
    04:00 +1°C° 0.1 mm 2 mps 726 mmHg 91%
    05:00 -1°C° 0.1 mm 2 mps 727 mmHg 90%
    06:00 -1°C° 0 mm 2 mps 727 mmHg 90%
    07:00 -1°C° 0 mm 2 mps 728 mmHg 90%
    08:00 -2°C° 0 mm 2 mps 728 mmHg 91%
    09:00 -1°C° 0 mm 2 mps 728 mmHg 86%
    10:00 -1°C° 0 mm 2 mps 729 mmHg 82%
    11:00 +1°C° 0 mm 2 mps 729 mmHg 77%
    12:00 +1°C° 0 mm 2 mps 729 mmHg 76%
    13:00 +1°C° 0 mm 2 mps 729 mmHg 74%
    14:00 +2°C° 0 mm 2 mps 729 mmHg 73%
    15:00 +1°C° 0 mm 2 mps 729 mmHg 77%
    16:00 +1°C° 0 mm 2 mps 730 mmHg 80%
    17:00 -1°C° 0 mm 2 mps 730 mmHg 84%
    18:00 -1°C° 0 mm 2 mps 731 mmHg 85%
    19:00 -2°C° 0 mm 2 mps 731 mmHg 87%
    20:00 -2°C° 0 mm 2 mps 731 mmHg 88%
    21:00 0°C° 0 mm 1 mps 732 mmHg 88%
    22:00 0°C° 0 mm 1 mps 732 mmHg 88%
    23:00 -1°C° 0 mm 1 mps 732 mmHg 88%

    18 December, Monday

    Time Temperature Precipitation Wind Pressure Humidity
    00:00 -1°C° 0 mm 1 mps 732 mmHg 87%
    01:00 -1°C° 0 mm 1 mps 733 mmHg 87%
    02:00 -1°C° 0 mm 1 mps 733 mmHg 87%
    03:00 -1°C° 0 mm 1 mps 733 mmHg 86%
    04:00 -1°C° 0 mm 1 mps 733 mmHg 85%
    05:00 -1°C° 0 mm 1 mps 733 mmHg 84%
    06:00 -1°C° 0 mm 1 mps 733 mmHg 84%
    07:00 -1°C° 0 mm 1 mps 733 mmHg 84%
    08:00 -1°C° 0 mm 1 mps 733 mmHg 84%
    09:00 -1°C° 0 mm 1 mps 734 mmHg 80%
    10:00 0°C° 0 mm 1 mps 734 mmHg 77%
    11:00 +1°C° 0 mm 1 mps 734 mmHg 73%
    12:00 -1°C° 0.1 mm 2 mps 734 mmHg 72%
    13:00 -1°C° 0.1 mm 2 mps 734 mmHg 70%
    14:00 -1°C° 0.1 mm 2 mps 733 mmHg 68%
    15:00 +1°C° 0.1 mm 1 mps 734 mmHg 72%
    16:00 0°C° 0.1 mm 1 mps 734 mmHg 76%
    17:00 -1°C° 0.1 mm 1 mps 734 mmHg 80%
    18:00 -1°C° 0 mm 1 mps 734 mmHg 81%
    19:00 -1°C° 0 mm 1 mps 735 mmHg 82%
    20:00 -2°C° 0 mm 1 mps 735 mmHg 83%
    21:00 -2°C° 0 mm 1 mps 735 mmHg 83%
    22:00 -2°C° 0 mm 1 mps 736 mmHg 82%
    23:00 -2°C° 0 mm 1 mps 736 mmHg 82%

    19 December, Tuesday

    Time Temperature Precipitation Wind Pressure Humidity
    00:00 -2°C° 0 mm 1 mps 736 mmHg 81%
    01:00 -2°C° 0 mm 1 mps 736 mmHg 80%
    02:00 -2°C° 0 mm 1 mps 736 mmHg 80%
    03:00 -2°C° 0.1 mm 1 mps 736 mmHg 80%
    04:00 -1°C° 0.1 mm 1 mps 737 mmHg 80%
    05:00 -1°C° 0.1 mm 1 mps 737 mmHg 81%
    06:00 -1°C° 0.1 mm 1 mps 737 mmHg 83%
    07:00 -1°C° 0.1 mm 1 mps 738 mmHg 84%
    08:00 -1°C° 0.1 mm 1 mps 738 mmHg 86%
    09:00 -1°C° 0.1 mm 1 mps 738 mmHg 84%
    10:00 -2°C° 0.1 mm 2 mps 739 mmHg 82%
    11:00 -2°C° 0.1 mm 2 mps 739 mmHg 80%
    12:00 -2°C° 0.1 mm 2 mps 739 mmHg 78%
    13:00 -2°C° 0.1 mm 2 mps 739 mmHg 76%
    14:00 -1°C° 0.1 mm 2 mps 739 mmHg 74%
    15:00 -2°C° 0 mm 2 mps 740 mmHg 78%
    16:00 -3°C° 0 mm 2 mps 740 mmHg 83%
    17:00 -4°C° 0 mm 2 mps 740 mmHg 87%
    18:00 -4°C° 0 mm 2 mps 741 mmHg 88%
    19:00 -5°C° 0 mm 2 mps 741 mmHg 89%
    20:00 -5°C° 0 mm 2 mps 741 mmHg 89%
    21:00 -5°C° 0 mm 2 mps 741 mmHg 89%
    22:00 -5°C° 0 mm 2 mps 741 mmHg 88%
    23:00 -6°C° 0 mm 2 mps 742 mmHg 88%

    20 December, Wednesday

    Time Temperature Precipitation Wind Pressure Humidity
    00:00 -6°C° 0 mm 2 mps 741 mmHg 87%
    01:00 -6°C° 0 mm 2 mps 741 mmHg 86%
    02:00 -6°C° 0 mm 2 mps 741 mmHg 85%
    03:00 -6°C° 0 mm 2 mps 741 mmHg 84%
    04:00 -6°C° 0 mm 2 mps 741 mmHg 82%
    05:00 -6°C° 0 mm 2 mps 741 mmHg 80%
    06:00 -6°C° 0 mm 2 mps 740 mmHg 79%
    07:00 -4°C° 0 mm 1 mps 740 mmHg 78%
    08:00 -4°C° 0 mm 1 mps 740 mmHg 77%
    09:00 -3°C° 0 mm 1 mps 740 mmHg 73%
    10:00 -2°C° 0 mm 1 mps 740 mmHg 69%
    11:00 -1°C° 0 mm 1 mps 740 mmHg 65%
    12:00 0°C° 0 mm 1 mps 740 mmHg 63%
    13:00 0°C° 0 mm 1 mps 740 mmHg 62%
    14:00 +1°C° 0 mm 1 mps 739 mmHg 60%
    15:00 0°C° 0 mm 1 mps 739 mmHg 65%
    16:00 -1°C° 0 mm 1 mps 739 mmHg 70%
    17:00 -2°C° 0 mm 1 mps 739 mmHg 74%
    18:00 -2°C° 0 mm 1 mps 740 mmHg 76%
    19:00 -2°C° 0 mm 1 mps 740 mmHg 77%
    20:00 -2°C° 0 mm 1 mps 740 mmHg 79%
    21:00 -2°C° 0 mm 1 mps 740 mmHg 79%
    22:00 -2°C° 0 mm 1 mps 740 mmHg 80%
    23:00 -2°C° 0 mm 1 mps 740 mmHg 80%
    Show more